ASTRA 1G
1 25071U 97076A   02364.00000000  .00000128  00000-0  10000-3 0  3864
2 25071   0.0122 319.8851 0002995  65.1991  92.3633  1.00273184 18633
INMARSAT 3-F5
1 25153U 98006B   03013.01553821  .00000160  00000-0  10000-3 0  8306
2 25153   0.4466 359.3187 0003647 269.6957 233.6364  1.00274965 18132
HOT BIRD 4
1 25237U 98013A   02364.09542247  .00000095  00000-0  10000-3 0  3237
2 25237   0.0611 171.7992 0008910  46.8775 287.0610  1.00272623 18039
NOAA 15
1 25338U 98030A   03012.99648301  .00000184  00000-0  98460-4 0  9676
2 25338  98.5510  36.1370 0011370  65.6940 294.5425 14.24225893242596
RESURS O1-N4
1 25394U 98043A   03013.23558339  .00000181  00000-0  98018-4 0  4223
2 25394  98.6363  91.8238 0001141 179.4436 180.6743 14.23862835234361
TMSAT
1 25396U 98043C   03012.91533154 -.00000043 +00000-0 +00000-0 0 09477
2 25396 098.6332 090.7324 0002177 206.1360 153.9715 14.23497383234316
TECHSAT 1B
1 25397U 98043D   03012.92293863 +.00000082 +00000-0 +55906-4 0 01113
2 25397 098.6280 089.6651 0000468 225.6066 134.5072 14.22950128234286
ASTRA 2A
1 25462U 98050A   02364.00000000  .00000158  00000-0  00000+0 0  5276
2 25462   0.0385 308.7109 0004824 280.8620 256.9180  1.00272094 15933
EUTELSAT W2
1 25491U 98056A   03012.86124057  .00000123  00000-0  00000+0 0  5618
2 25491   0.0508 109.3812 0003700 183.4770 145.1010  1.00274064 15686
HOT BIRD 5
1 25495U 98057A   03011.93490742 +.00000173 +00000-0 +00000-0 0 04926
2 25495 000.0624 143.7977 0004180 135.8889 201.0357 01.00276078015647
SEDSAT 1
1 25509U 98061B   03012.37424531  .00001509  00000-0  29258-3 0  7554
2 25509  31.4348   3.2051 0357717 338.0604  20.5049 14.27361708219990
PAN SAT
1 25520U 98064B   03012.63943930  .00003396  00000-0  17358-3 0  6281
2 25520  28.4604 109.7947 0005438 311.5923  48.4223 15.13676736231982
ISS (ZARYA)
1 25544U 98067A   03013.51808117  .00030801  00000-0  39275-3 0  5771
2 25544  51.6343  77.1889 0005175  29.8443 112.1664 15.59011955236870
ORSTED
1 25635U 99008B   03013.03084904  .00000634  00000-0  16747-3 0  8059
2 25635  96.4478   8.0204 0146837  84.8805 276.9130 14.44764602204661
SUNSAT
1 25636U 99008C   03012.96461717 +.00000299 +00000-0 +85640-4 0 08036
2 25636 096.4497 006.7017 0150664 091.2256 270.6205 14.42915594204531
UOSAT 12
1 25693U 99021A   03013.37835681  .00000907  00000-0  14981-3 0  6083
2 25693  64.5585 121.5509 0017108 317.3179  42.6565 14.76345039200913
FENGYUN 1C
1 25730U 99025A   03013.22354261 -.00000005  00000-0  20377-4 0  7418
2 25730  98.6368  38.9866 0015313 105.2660 255.0206 14.11729372189502
ASTRA 1H
1 25785U 99033A   02364.00000000  .00000128  00000-0  10000-3 0  3670
2 25785   0.0122 319.8851 0002995  65.1991  92.3410  1.00273184 12991
TERRA
1 25994U 99068A   03013.26120740  .00000672  00000-0  15917-3 0  5986
2 25994  98.2043  90.0343 0001090  72.9130 287.2201 14.57086122163387
JAWSAT
1 26061U 00004A   03012.90603787  .00000522  00000-0  19179-3 0  7396
2 26061 100.2116  63.1611 0035327  23.9580 336.3238 14.37776531155264
OPAL
1 26063U 00004C   03012.68334542  .00000144  00000-0  70200-4 0  6968
2 26063 100.2175  60.5609 0037451  30.6609 329.6747 14.35463730155099
ASUSAT
1 26065U 00004E   03013.19851309  .00000162  00000-0  76118-4 0  7079
2 26065 100.2165  61.3106 0037651  30.9373 329.4014 14.35489913155168
GOES 11
1 26352U 00022A   03012.52750551 -.00000022  00000-0  10000-3 0  9717
2 26352   0.0555 113.6172 0004459 163.0041 272.5887  1.00261359  9862
EUTELSAT W4
1 26369U 00028A   02365.18880209  .00000161  00000-0  00000+0 0  3348
2 26369   0.0264   6.8932 0003444 271.2514 285.3827  1.00274671  9557
FENGYUN 2B
1 26382U 00032A   03012.98037590 -.00000309  00000-0  00000+0 0  7678
2 26382   0.6546 287.3101 0000556 168.3299 113.8070  1.00266321  9347
EUTELSAT W1
1 26487U 00052A   03013.00216436  .00000087  00000-0  10000-3 0  3413
2 26487   0.0486 102.7976 0003860 182.0647 197.9575  1.00274920  8651
ASTRA 2B
1 26494U 00054A   02364.00000000  .00000158  00000-0  00000+0 0  2502
2 26494   0.0178 354.5658 0005000 302.8402 189.0339  1.00276704  8416
NOAA 16
1 26536U 00055A   03012.80232638  .00000118  00000-0  88841-4 0  1625
2 26536  98.8975 321.3683 0011417  51.6361 308.5824 14.11880842118964
SAUDISAT 1A
1 26545U 00057A   03013.03095324  .00002392  00000-0  33519-3 0  3979
2 26545  64.5574 144.2130 0054407 244.4982 115.0534 14.78867843123813
UNISAT
1 26547U 00057C   03013.03545511  .00003691  00000-0  49507-3 0  4168
2 26547  64.5566 146.5696 0061490 247.0396 112.4251 14.79559707123787
TIUNGSAT 1
1 26548U 00057D   03012.70447801 +.00002898 +00000-0 +38326-3 0 04025
2 26548 064.5570 138.5123 0047756 243.3429 116.2782 14.81123825123911
SAUDISAT 1B
1 26549U 00057E   03013.51451711  .00001996  00000-0  28891-3 0  6656
2 26549  64.5493 146.6529 0058867 244.8093 114.6892 14.77808713123818
AMSAT OSCAR 40
1 26609U 00072B   03010.44625714 -.00000033  00000-0  10000-3 0  3039
2 26609   7.9502  71.3649 7935426 131.6935 329.0160  1.25596950 10095
GOES 12
1 26871U 01031A   03013.33691153 -.00000069  00000-0  10000-3 0  7681
2 26871   0.4624  97.7787 0000963  46.8413 343.7787  1.00278615  5476
STARSHINE 3
1 26929U 01043A   03013.61925552  .01048140  67442-3  10617-2 0  6682
2 26929  67.0218  84.0972 0008103 330.9066  29.1622 16.10755675 73110
PCSAT
1 26931U 01043C   03012.92320602  .00000250  00000-0  13111-3 0  3754
2 26931  67.0484 349.9536 0005306 258.4360 101.6145 14.29091624 67114
SAPPHIRE
1 26932U 01043D   03012.97587757 +.00000134 +00000-0 +85185-4 0 03758
2 26932 067.0550 349.5325 0006367 238.4140 121.6341 14.29277215067148
ENVISAT
1 27386U 02009A   03013.42729859  .00000208  00000-0  93341-4 0  8409
2 27386  98.5495  82.4992 0000925  99.2756 260.8530 14.32254164 45573
IDEFIX/ARIANE 42P
1 27422U 02021B   03012.95588494 +.00000275 +00000-0 +12885-3 0 02095
2 27422 098.6998 092.3172 0011789 254.7578 105.2299 14.27947473036236
NOAA 17
1 27453U 02032A   03012.93944206  .00000295  00000-0  14996-3 0  2666
2 27453  98.7619  84.3324 0012611 102.3250 257.9340 14.23268876 28750
HOT BIRD 6
1 27499U 02038A   02364.09542247  .00000095  00000-0  10000-3 0   643
2 27499   0.0040   8.7196 0011180 225.2390 271.8102  1.00272778  1323
RUBIN 2
1 27605U 02058A   03013.21756886  .00000835  00000-0  15505-3 0   283
2 27605  64.5539 307.6211 0031016 126.4289 233.9678 14.71367927  3465
